This demonstration page uses our WeatherBlox Daily Observations layout. Learn more.

Left ArrowRight Arrow

47.50024, -111.30081

Hourly Observations for July 7, 2020

Temp ( °F °C ) Dew Point ( °F °C ) Humidity (%) Winds ( mph kmh ) Pressure ( in mb ) Visibility ( mi km ) Precip ( " mm )
12:53 am 00:53 Clear 67 19.4 51 10.6 57 57 ESE 10 17 29.78 1008 10 16 0.00 0.00
1:53 am 01:53 Clear 57 13.9 49 9.4 74 74 Calm 29.78 1009 10 16 0.00 0.00
2:53 am 02:53 Clear 60 15.6 49 9.4 67 67 SSE 6 9 29.75 1008 10 16 0.00 0.00
3:53 am 03:53 Clear 58 14.4 49 9.4 72 72 Calm 29.74 1007 10 16 0.00 0.00
4:53 am 04:53 Clear 62 16.7 51 10.6 67 67 Calm 29.70 1006 10 16 0.00 0.00
5:53 am 05:53 Sunny 57 13.9 51 10.6 81 81 Calm 29.69 1006 10 16 0.00 0.00
6:53 am 06:53 Sunny 58 14.4 52 11.1 81 81 Calm 29.68 1005 10 16 0.00 0.00
7:53 am 07:53 Sunny 70 21.1 53 11.7 55 55 N 3 6 29.63 1003 10 16 0.00 0.00
8:53 am 08:53 Sunny 65 18.3 54 12.2 68 68 W 9 15 29.66 1005 10 16 0.00 0.00
9:53 am 09:53 Sunny 69 20.6 55 12.8 61 61 WNW 8 13 29.65 1004 10 16 0.00 0.00
10:53 am 10:53 Sunny 72 22.2 54 12.2 53 53 WNW 14 22 29.65 1004 10 16 0.00 0.00
11:53 am 11:53 Mostly Sunny 70 21.1 50 10 49 49 NW 15 24 29.67 1005 10 16 0.00 0.00
12:53 pm 12:53 Mostly Cloudy with Light Rain 65 18.3 49 9.4 56 56 NNW 17 28 29.68 1005 10 16 0.01 0.25
1:53 pm 13:53 Cloudy with Light Rain 61 16.1 54 12.2 78 78 WSW 12 19 29.79 1009 7 11 0.01 0.25
2:53 pm 14:53 Partly Cloudy 69 20.6 51 10.6 53 53 W 12 19 29.74 1007 10 16 0.01 0.25
3:53 pm 15:53 Sunny 72 22.2 48 8.9 43 43 SW 12 19 29.74 1007 10 16 0.00 0.00
4:53 pm 16:53 Mostly Cloudy 73 22.8 47 8.3 40 40 SW 9 15 29.72 1007 10 16 0.00 0.00
5:53 pm 17:53 Mostly Cloudy 71 21.7 44 6.7 38 38 WNW 10 17 29.74 1007 10 16 0.00 0.00
6:53 pm 18:53 Sunny 72 22.2 41 5 33 33 WNW 14 22 29.72 1007 10 16 0.00 0.00
7:53 pm 19:53 Sunny 70 21.1 41 5 35 35 W 15 24 29.70 1006 10 16 0.00 0.00
8:53 pm 20:53 Sunny 65 18.3 41 5 42 42 W 13 20 29.75 1008 10 16 0.00 0.00
9:53 pm 21:53 Clear 57 13.9 40 4.4 53 53 W 7 11 29.78 1009 10 16 0.00 0.00
10:53 pm 22:53 Clear 55 12.8 40 4.4 57 57 W 6 9 29.81 1010 10 16 0.00 0.00
11:53 pm 23:53 Clear 56 13.3 42 5.6 60 60 WSW 14 22 29.82 1010 10 16 0.00 0.00

Powered by AerisWeather